Location: Cointrin
(46.2167°N, 6.1167°E)
Time: 00:15:34
(UTC+00:00)

ISS - Pass Details

Date: 25 January 2026
Orbit: 413 x 429 km, 51.6° (Epoch: 11 February)

Event Time Altitude Azimuth Distance (km) Brightness Sun altitude
Rises 19:19:58 0° 293° (WNW) 2,370 1.1 -29.3°
Reaches altitude 10° 19:22:10 10° 285° (WNW) 1,506 -0.1 -29.6°
Enters shadow 19:23:02 16° 277° (W) 1,190 -0.7 -29.8°
